Zurück zum Katalog

THOR ABLESTAR DEB

AktivLEO
NORAD 224·DEBRIS·🇺🇸 United States

Gestartet Jun 29, 1961 von Cape Canaveral Space Force Station

Loading…

Nächste Überflüge (nächste 24 Stunden)

TLE

AktuellSource: Space-Track

Epoche: Sep 14, 2026, 14:25 UTC

1 00224U 61015BL  26257.60100973  .00000303  00000-0  20470-3 0  9991
2 00224  66.7341 285.9297 0066606 320.2666 121.6705 14.12181289325142

Verfolge THOR ABLESTAR DEB in Echtzeit mit AllMySat

Download on the App Store